User: anonymous   Login
Location: Hartman Creek State Park
(44.3257°N, 89.2134°W)
Time: 14:53:37
(UTC-06:00)
Language:

Terra - Orbit

View from above orbital plane
View from above orbital plane
View from above satellite
View from above satellite

Ground track
Ground track

The orbit data is extracted from the following two-line orbital elements,

1 25994U 99068A   15060.54391636  .00000632  00000-0  15031-3 0  9994
2 25994 098.2188 136.5545 0001225 085.2845 274.8486 14.57137459808548
Epoch (UTC): 01 March 2015 13:03:14
Eccentricity: 0.0001225
inclination: 98.2188°
perigee height: 701 km
apogee height: 703 km
right ascension of ascending node: 136.5545°
argument of perigee: 85.2845°
revolutions per day: 14.57137459
mean anomaly at epoch: 274.8486°
orbit number at epoch: 80854

The dashed part of the orbit path shows where the satellite is in the earth's shadow,  

DLR